Location: Rounton
(54.4000°N, 1.3500°W)
Time: 17:30:05
(UTC+00:00)

N. Korean satellite - Visible Passes

Search period start: 04 December 2022 00:00
Search period end: 14 December 2022 00:00
Orbit: 421 x 453 km, 97.3° (Epoch: 03 December)

Date Brightness Start Highest point End Pass type
(mag) Time Alt. Az. Time Alt. Az. Time Alt. Az.
04 Dec 8.3 05:00:43 10° NNE 05:03:49 31° E 05:06:52 10° SSE visible
04 Dec 7.4 06:33:21 10° N 06:36:15 26° WNW 06:39:08 10° WSW visible
04 Dec 8.9 17:09:07 10° SSW 17:12:02 26° W 17:14:59 10° NW visible
05 Dec 9.7 04:22:58 10° ENE 04:24:35 13° E 04:26:13 10° ESE visible
05 Dec 6.3 05:54:07 10° N 05:57:31 66° WNW 06:00:53 10° SSW visible
05 Dec 6.8 16:29:35 10° S 16:32:58 71° WSW 16:36:25 10° NNW visible
06 Dec 7.5 05:15:16 10° NNE 05:18:33 44° E 05:21:49 10° S visible
06 Dec 7.8 06:48:18 10° NNW 06:50:49 19° WNW 06:53:19 10° WSW visible
06 Dec 9.5 17:24:17 10° SW 17:26:47 19° W 17:29:19 10° NW visible
07 Dec 9.3 04:36:58 10° NE 04:39:21 18° E 04:41:43 10° SE visible
07 Dec 6.6 06:08:49 10° N 06:12:06 45° WNW 06:15:20 10° SW visible
07 Dec 7.6 16:44:17 10° S 16:47:35 48° W 16:50:56 10° NNW visible
08 Dec 6.7 05:29:44 10° NNE 05:33:08 65° ESE 05:36:29 10° S visible
08 Dec 8.1 07:03:16 10° NNW 07:05:13 15° WNW 07:07:10 10° W visible
08 Dec 9.7 17:39:35 10° WSW 17:41:26 14° W 17:43:18 10° NW visible
09 Dec 8.7 04:51:06 10° NE 04:53:56 24° E 04:56:44 10° SSE visible
09 Dec 7.1 06:23:25 10° N 06:26:30 32° WNW 06:29:32 10° SW visible
09 Dec 8.4 16:58:57 10° SSW 17:02:05 33° W 17:05:14 10° NNW visible
10 Dec 6.2 05:44:08 10° NNE 05:47:33 86° WNW 05:50:55 10° SSW visible
10 Dec 8.4 07:18:27 10° NW 07:19:27 11° NW 07:20:27 10° WNW visible
10 Dec 6.4 16:19:30 10° SSE 16:22:55 88° ENE 16:26:22 10° NNW visible
11 Dec 8.1 05:05:14 10° NNE 05:08:22 33° E 05:11:26 10° SSE visible
11 Dec 7.5 06:37:58 10° N 06:40:44 23° WNW 06:43:28 10° WSW visible
11 Dec 9.0 17:13:38 10° SSW 17:16:28 24° W 17:19:20 10° NW visible
12 Dec 9.6 04:27:06 10° NE 04:28:55 14° E 04:30:43 10° ESE visible
12 Dec 6.3 05:58:26 10° N 06:01:47 59° WNW 06:05:05 10° SSW visible
12 Dec 7.0 16:33:46 10° S 16:37:09 64° WSW 16:40:34 10° NNW visible
13 Dec 7.3 05:19:18 10° NNE 05:22:36 48° E 05:25:51 10° S visible
13 Dec 7.9 06:52:27 10° NNW 06:54:48 18° WNW 06:57:08 10° WSW visible
13 Dec 9.5 17:28:21 10° SW 17:30:44 18° W 17:33:08 10° NW visible
